| time (UTC) | temp F | wind direction | speed MPH | gust MPH | rain 1hr in | rain 24hr in | rain mn in | humidity % | barometer mb |
| 20260510214225 | 52 | 193 | 2.0 | 10.0 | 0.00 | 0.15 | 0.05 | 64 | 1018.2 |
| 20260510213202 | 52 | 292 | 2.0 | 6.0 | 0.00 | 0.15 | 0.05 | 64 | 1018.0 |
| 20260510212202 | 52 | 305 | 2.0 | 9.0 | 0.00 | 0.15 | 0.05 | 63 | 1017.9 |
| 20260510211224 | 53 | 287 | 4.0 | 11.0 | 0.00 | 0.15 | 0.05 | 62 | 1017.7 |
| 20260510210203 | 53 | 271 | 3.0 | 11.0 | 0.00 | 0.15 | 0.05 | 62 | 1017.5 |
| 20260510205223 | 53 | 291 | 7.0 | 14.0 | 0.00 | 0.15 | 0.05 | 60 | 1017.4 |
| 20260510204224 | 54 | 260 | 2.0 | 11.0 | 0.00 | 0.15 | 0.05 | 59 | 1017.2 |
| 20260510203245 | 54 | 284 | 3.0 | 11.0 | 0.00 | 0.15 | 0.05 | 59 | 1017.1 |
| 20260510202245 | 55 | 305 | 4.0 | 12.0 | 0.00 | 0.15 | 0.05 | 59 | 1017.0 |
| 20260510201202 | 56 | 295 | 6.0 | 11.0 | 0.00 | 0.15 | 0.05 | 57 | 1016.9 |
| 20260510200202 | 55 | 275 | 5.0 | 11.0 | 0.00 | 0.15 | 0.05 | 60 | 1016.9 |
| 20260510195202 | 55 | 284 | 5.0 | 10.0 | 0.00 | 0.15 | 0.05 | 56 | 1017.0 |
| 20260510194202 | 56 | 241 | 3.0 | 13.0 | 0.00 | 0.15 | 0.05 | 58 | 1016.9 |
| 20260510193203 | 56 | 302 | 5.0 | 11.0 | 0.00 | 0.15 | 0.05 | 58 | 1016.7 |
| 20260510192203 | 55 | 308 | 4.0 | 9.0 | 0.00 | 0.15 | 0.05 | 57 | 1016.7 |
| 20260510191203 | 56 | 265 | 2.0 | 9.0 | 0.00 | 0.15 | 0.05 | 57 | 1016.7 |
| 20260510190223 | 56 | 257 | 4.0 | 9.0 | 0.00 | 0.15 | 0.05 | 58 | 1016.6 |
| 20260510185202 | 56 | 198 | 2.0 | 10.0 | 0.00 | 0.15 | 0.05 | 60 | 1016.5 |
| 20260510184202 | 55 | 294 | 4.0 | 9.0 | 0.00 | 0.15 | 0.05 | 60 | 1016.5 |
| 20260510183203 | 55 | 206 | 2.0 | 7.0 | 0.00 | 0.15 | 0.05 | 53 | 1016.5 |
| 20260510182202 | 56 | 238 | 2.0 | 10.0 | 0.00 | 0.15 | 0.05 | 51 | 1016.4 |
| 20260510181203 | 58 | 299 | 6.0 | 13.0 | 0.00 | 0.15 | 0.05 | 42 | 1016.3 |
| 20260510180202 | 59 | 310 | 5.0 | 14.0 | 0.00 | 0.15 | 0.05 | 43 | 1016.2 |
| 20260510175203 | 59 | 331 | 7.0 | 16.0 | 0.00 | 0.15 | 0.05 | 44 | 1016.3 |
| 20260510174203 | 58 | 341 | 8.0 | 17.0 | 0.00 | 0.15 | 0.05 | 40 | 1016.2 |
| 20260510173202 | 58 | 326 | 5.0 | 12.0 | 0.00 | 0.15 | 0.05 | 43 | 1016.1 |
| 20260510172205 | 57 | 305 | 7.0 | 14.0 | 0.00 | 0.15 | 0.05 | 43 | 1016.0 |
| 20260510171202 | 57 | 279 | 5.0 | 13.0 | 0.00 | 0.15 | 0.05 | 44 | 1015.9 |
| 20260510170202 | 57 | 292 | 6.0 | 17.0 | 0.00 | 0.15 | 0.05 | 46 | 1015.9 |
| 20260510165202 | 56 | 297 | 8.0 | 15.0 | 0.00 | 0.15 | 0.05 | 44 | 1016.0 |
| 20260510164202 | 56 | 303 | 10.0 | 19.0 | 0.00 | 0.15 | 0.05 | 42 | 1016.1 |
| 20260510163223 | 56 | 289 | 8.0 | 19.0 | 0.00 | 0.15 | 0.05 | 46 | 1016.0 |
| 20260510162202 | 56 | 340 | 5.0 | 18.0 | 0.00 | 0.15 | 0.05 | 46 | 1016.0 |
| 20260510161203 | 55 | 301 | 7.0 | 16.0 | 0.00 | 0.15 | 0.05 | 47 | 1016.1 |
| 20260510160202 | 55 | 281 | 10.0 | 20.0 | 0.00 | 0.15 | 0.05 | 49 | 1016.1 |
| 20260510155205 | 55 | 301 | 5.0 | 20.0 | 0.00 | 0.15 | 0.05 | 51 | 1016.0 |
| 20260510154202 | 54 | 293 | 7.0 | 15.0 | 0.00 | 0.15 | 0.05 | 52 | 1016.0 |
| 20260510153202 | 54 | 283 | 6.0 | 14.0 | 0.00 | 0.15 | 0.05 | 52 | 1016.0 |
| 20260510152204 | 54 | 306 | 9.0 | 16.0 | 0.00 | 0.15 | 0.05 | 51 | 1015.9 |
| 20260510151226 | 53 | 298 | 6.0 | 16.0 | 0.00 | 0.15 | 0.05 | 54 | 1015.8 |
| 20260510150203 | 52 | 284 | 6.0 | 15.0 | 0.00 | 0.15 | 0.05 | 56 | 1015.7 |
| 20260510145224 | 52 | 260 | 4.0 | 13.0 | 0.00 | 0.15 | 0.05 | 57 | 1015.6 |
| 20260510144206 | 52 | 276 | 6.0 | 14.0 | 0.00 | 0.15 | 0.05 | 59 | 1015.5 |
| 20260510143246 | 51 | 296 | 6.0 | 14.0 | 0.00 | 0.15 | 0.05 | 59 | 1015.3 |
| 20260510142203 | 51 | 289 | 6.0 | 13.0 | 0.00 | 0.15 | 0.05 | 62 | 1015.1 |
| 20260510141202 | 50 | 277 | 5.0 | 12.0 | 0.00 | 0.15 | 0.05 | 63 | 1015.0 |
| 20260510140202 | 49 | 279 | 7.0 | 10.0 | 0.00 | 0.15 | 0.05 | 65 | 1014.9 |
| 20260510134202 | 48 | 299 | 8.0 | 13.0 | 0.00 | 0.15 | 0.05 | 66 | 1014.8 |
| 20260510133224 | 47 | 305 | 7.0 | 13.0 | 0.00 | 0.15 | 0.05 | 66 | 1014.6 |
| 20260510132224 | 47 | 334 | 5.0 | 12.0 | 0.00 | 0.15 | 0.05 | 66 | 1014.4 |
| 20260510131202 | 46 | 309 | 6.0 | 11.0 | 0.00 | 0.15 | 0.05 | 69 | 1014.4 |
| 20260510130223 | 46 | 310 | 4.0 | 12.0 | 0.00 | 0.15 | 0.05 | 70 | 1014.2 |
| 20260510125202 | 46 | 305 | 6.0 | 12.0 | 0.00 | 0.15 | 0.05 | 70 | 1014.2 |
| 20260510124202 | 46 | 263 | 5.0 | 11.0 | 0.00 | 0.15 | 0.05 | 72 | 1014.1 |
| 20260510123203 | 46 | 290 | 6.0 | 11.0 | 0.00 | 0.15 | 0.05 | 74 | 1014.1 |
| 20260510122203 | 46 | 321 | 3.0 | 10.0 | 0.00 | 0.15 | 0.05 | 74 | 1013.9 |
| 20260510121202 | 46 | 321 | 3.0 | 9.0 | 0.00 | 0.15 | 0.05 | 79 | 1013.7 |
| 20260510120202 | 46 | 305 | 3.0 | 5.0 | 0.00 | 0.15 | 0.05 | 81 | 1013.5 |
| 20260510115203 | 45 | 287 | 1.0 | 4.0 | 0.00 | 0.15 | 0.05 | 81 | 1013.4 |
| 20260510114202 | 45 | 270 | 1.0 | 6.0 | 0.00 | 0.15 | 0.05 | 84 | 1013.2 |
| 20260510113203 | 44 | 328 | 2.0 | 5.0 | 0.00 | 0.15 | 0.05 | 85 | 1013.0 |
| 20260510112202 | 43 | 295 | 0.0 | 4.0 | 0.00 | 0.15 | 0.05 | 85 | 1012.8 |
| 20260510111223 | 43 | 293 | 2.0 | 4.0 | 0.00 | 0.15 | 0.05 | 86 | 1012.8 |
| 20260510110203 | 43 | 286 | 1.0 | 3.0 | 0.00 | 0.15 | 0.05 | 87 | 1012.5 |
| 20260510105202 | 43 | 286 | 2.0 | 3.0 | 0.00 | 0.15 | 0.05 | 87 | 1012.4 |
| 20260510104203 | 43 | 286 | 0.0 | 6.0 | 0.00 | 0.15 | 0.05 | 87 | 1012.1 |
| 20260510103202 | 43 | 299 | 0.0 | 1.0 | 0.00 | 0.15 | 0.05 | 87 | 1011.8 |
| 20260510102203 | 43 | 300 | 0.0 | 2.0 | 0.00 | 0.15 | 0.05 | 87 | 1011.7 |
| 20260510101203 | 43 | 299 | 1.0 | 5.0 | 0.00 | 0.15 | 0.05 | 87 | 1011.2 |
| 20260510100203 | 43 | 310 | 2.0 | 7.0 | 0.00 | 0.15 | 0.05 | 88 | 1011.1 |
| 20260510095202 | 43 | 304 | 5.0 | 10.0 | 0.00 | 0.15 | 0.05 | 90 | 1011.0 |
| 20260510094204 | 44 | 338 | 0.0 | 7.0 | 0.00 | 0.15 | 0.05 | 90 | 1010.7 |
| 20260510093202 | 44 | 313 | 1.0 | 3.0 | 0.00 | 0.15 | 0.05 | 90 | 1010.8 |
| 20260510092203 | 45 | 295 | 2.0 | 4.0 | 0.00 | 0.15 | 0.05 | 90 | 1010.7 |
| 20260510091225 | 45 | 289 | 0.0 | 0.0 | 0.00 | 0.15 | 0.05 | 90 | 1010.7 |
| 20260510090202 | 45 | 289 | 0.0 | 2.0 | 0.00 | 0.15 | 0.05 | 90 | 1010.5 |
| 20260510085223 | 45 | 289 | 0.0 | 1.0 | 0.02 | 0.15 | 0.05 | 90 | 1010.0 |
| 20260510084203 | 45 | 289 | 0.0 | 0.0 | 0.02 | 0.15 | 0.05 | 90 | 1009.8 |
| 20260510083202 | 46 | 289 | 0.0 | 4.0 | 0.01 | 0.14 | 0.04 | 90 | 1010.0 |
| 20260510082202 | 46 | 282 | 0.0 | 3.0 | 0.01 | 0.14 | 0.04 | 90 | 1010.0 |
| 20260510081202 | 46 | 318 | 1.0 | 4.0 | 0.00 | 0.13 | 0.03 | 91 | 1010.3 |
| 20260510080202 | 46 | 318 | 0.0 | 2.0 | 0.00 | 0.13 | 0.03 | 91 | 1009.6 |
| 20260510075203 | 47 | 318 | 0.0 | 3.0 | 0.03 | 0.13 | 0.03 | 91 | 1009.4 |
| 20260510074202 | 47 | 355 | 2.0 | 3.0 | 0.03 | 0.13 | 0.03 | 91 | 1009.5 |
| 20260510073204 | 48 | 354 | 2.0 | 3.0 | 0.02 | 0.12 | 0.02 | 91 | 1009.0 |
| 20260510072202 | 48 | 296 | 0.0 | 3.0 | 0.02 | 0.12 | 0.02 | 91 | 1009.0 |
| 20260510071202 | 48 | 296 | 0.0 | 1.0 | 0.01 | 0.11 | 0.01 | 92 | 1008.8 |
| 20260510070223 | 49 | 297 | 2.0 | 4.0 | 0.00 | 0.10 | 0.00 | 92 | 1008.9 |
| 20260510065202 | 49 | 302 | 0.0 | 0.0 | 0.00 | 0.10 | 0.00 | 92 | 1008.7 |
| 20260510064202 | 49 | 301 | 0.0 | 2.0 | 0.00 | 0.10 | 0.00 | 92 | 1008.4 |
| 20260510063225 | 49 | 300 | 0.0 | 3.0 | 0.00 | 0.10 | 0.00 | 92 | 1008.5 |
| 20260510062204 | 50 | 301 | 0.0 | 0.0 | 0.00 | 0.10 | 0.00 | 92 | 1008.3 |
| 20260510061202 | 50 | 301 | 0.0 | 0.0 | 0.00 | 0.10 | 0.00 | 92 | 1008.3 |
| 20260510060203 | 50 | 301 | 0.0 | 0.0 | 0.00 | 0.10 | 0.00 | 92 | 1008.2 |
| 20260510055202 | 50 | 300 | 0.0 | 7.0 | 0.00 | 0.10 | 0.00 | 92 | 1008.3 |
| 20260510054202 | 50 | 307 | 2.0 | 4.0 | 0.00 | 0.10 | 0.00 | 92 | 1008.2 |
| 20260510053202 | 49 | 291 | 0.0 | 1.0 | 0.00 | 0.10 | 0.00 | 92 | 1008.1 |
| 20260510052223 | 49 | 292 | 0.0 | 0.0 | 0.00 | 0.10 | 0.00 | 92 | 1008.1 |
| 20260510051202 | 50 | 292 | 0.0 | 0.0 | 0.00 | 0.10 | 0.00 | 92 | 1007.8 |
| 20260510050203 | 50 | 292 | 0.0 | 0.0 | 0.00 | 0.10 | 0.00 | 92 | 1007.5 |
| 20260510045203 | 50 | 292 | 0.0 | 2.0 | 0.00 | 0.10 | 0.00 | 92 | 1007.2 |
| 20260510044205 | 50 | 296 | 1.0 | 4.0 | 0.00 | 0.10 | 0.00 | 91 | 1007.7 |
| 20260510043202 | 50 | 216 | 1.0 | 3.0 | 0.00 | 0.10 | 0.00 | 91 | 1007.3 |
| 20260510042224 | 50 | 217 | 0.0 | 0.0 | 0.00 | 0.10 | 0.00 | 91 | 1006.9 |
| 20260510041202 | 50 | 217 | 0.0 | 0.0 | 0.00 | 0.10 | 0.00 | 91 | 1006.6 |
| 20260510040203 | 51 | 217 | 0.0 | 1.0 | 0.00 | 0.10 | 0.00 | 91 | 1006.3 |
| 20260510035202 | 51 | 216 | 0.0 | 3.0 | 0.00 | 0.10 | 0.10 | 91 | 1006.4 |
| 20260510034203 | 51 | 216 | 0.0 | 7.0 | 0.00 | 0.10 | 0.10 | 91 | 1006.3 |
| 20260510033202 | 51 | 280 | 0.0 | 2.0 | 0.00 | 0.10 | 0.10 | 91 | 1006.5 |
| 20260510032205 | 51 | 279 | 0.0 | 2.0 | 0.00 | 0.10 | 0.10 | 91 | 1006.5 |
| 20260510031202 | 51 | 280 | 0.0 | 0.0 | 0.00 | 0.10 | 0.10 | 91 | 1006.4 |
| 20260510030202 | 51 | 279 | 0.0 | 2.0 | 0.00 | 0.10 | 0.10 | 91 | 1006.5 |
| 20260510025202 | 50 | 280 | 0.0 | 3.0 | 0.00 | 0.10 | 0.10 | 90 | 1006.3 |
| 20260510023223 | 51 | 280 | 0.0 | 0.0 | 0.00 | 0.10 | 0.10 | 90 | 1006.1 |
| 20260510022202 | 52 | 280 | 0.0 | 2.0 | 0.00 | 0.10 | 0.10 | 90 | 1005.8 |
| 20260510021202 | 52 | 303 | 0.0 | 5.0 | 0.00 | 0.10 | 0.10 | 90 | 1005.7 |
| 20260510020203 | 52 | 163 | 0.0 | 5.0 | 0.00 | 0.10 | 0.10 | 90 | 1005.8 |
| 20260510015202 | 52 | 261 | 0.0 | 4.0 | 0.00 | 0.10 | 0.10 | 90 | 1005.8 |
| 20260510014206 | 52 | 242 | 0.0 | 3.0 | 0.00 | 0.10 | 0.10 | 90 | 1005.6 |
| 20260510013202 | 52 | 242 | 1.0 | 4.0 | 0.00 | 0.10 | 0.10 | 90 | 1005.6 |
| 20260510012202 | 51 | 249 | 0.0 | 3.0 | 0.00 | 0.10 | 0.10 | 90 | 1005.5 |
| 20260510011202 | 51 | 198 | 3.0 | 5.0 | 0.00 | 0.10 | 0.10 | 90 | 1005.4 |
| 20260510010224 | 51 | 181 | 0.0 | 2.0 | 0.00 | 0.10 | 0.10 | 90 | 1005.4 |
| 20260510005203 | 51 | 182 | 0.0 | 2.0 | 0.00 | 0.10 | 0.10 | 90 | 1005.1 |
| 20260510004202 | 52 | 181 | 0.0 | 2.0 | 0.00 | 0.10 | 0.10 | 90 | 1004.7 |
| 20260510003203 | 52 | 181 | 0.0 | 3.0 | 0.00 | 0.10 | 0.10 | 89 | 1004.7 |
| 20260510002202 | 52 | 220 | 1.0 | 4.0 | 0.00 | 0.10 | 0.10 | 89 | 1004.8 |
| 20260510001225 | 52 | 221 | 0.0 | 3.0 | 0.00 | 0.10 | 0.10 | 89 | 1004.7 |
| 20260510000204 | 52 | 220 | 2.0 | 3.0 | 0.00 | 0.10 | 0.10 | 88 | 1004.8 |
| 20260509235202 | 52 | 212 | 3.0 | 6.0 | 0.08 | 0.10 | 0.10 | 88 | 1004.4 |
| 20260509234202 | 52 | 281 | 0.0 | 3.0 | 0.08 | 0.10 | 0.10 | 87 | 1004.5 |
| 20260509233203 | 52 | 285 | 2.0 | 12.0 | 0.06 | 0.08 | 0.08 | 86 | 1005.2 |
| 20260509232203 | 53 | 299 | 7.0 | 16.0 | 0.04 | 0.06 | 0.06 | 84 | 1005.3 |
| 20260509231202 | 54 | 289 | 5.0 | 17.0 | 0.02 | 0.04 | 0.04 | 82 | 1005.4 |
| 20260509230203 | 57 | 267 | 10.0 | 30.0 | 0.01 | 0.03 | 0.03 | 77 | 1005.8 |
| 20260509225203 | 61 | 242 | 3.0 | 10.0 | 0.00 | 0.00 | 0.00 | 74 | 1003.8 |
| 20260509224204 | 61 | 213 | 0.0 | 0.0 | 0.00 | 0.00 | 0.00 | 72 | 1002.9 |
| 20260509223202 | 62 | 213 | 0.0 | 0.0 | 0.00 | 0.00 | 0.00 | 72 | 1002.6 |
| 20260509222202 | 62 | 213 | 0.0 | 0.0 | 0.00 | 0.00 | 0.00 | 70 | 1002.4 |
| 20260509221202 | 62 | 213 | 0.0 | 0.0 | 0.00 | 0.00 | 0.00 | 71 | 1002.5 |
| 20260509220202 | 62 | 223 | 0.0 | 0.0 | 0.00 | 0.00 | 0.00 | 70 | 1002.6 |
| 20260509215224 | 62 | 223 | 0.0 | 0.0 | 0.00 | 0.00 | 0.00 | 70 | 1002.9 |